Content
SEND FEEDBACK

Daily
Averages
Monthly
Summary
United States of America

EUREKA, CALIFORNIA


Home > North America > United States > California
Elevation: 17 meters     Latitude: 40 48N     Longitude: 124 07W

WEATHER
 
SELECT A DAY
Number of Records: 245,551;   Date Range: 1/1/95 - 12/18/14
 
SHARE

PRINT THIS DATA

[ ← Previous Day ]
WEATHER ALMANAC - 31 JANUARY, 2013
[ Next Day → ]
[ °F ]   °C
Weather ElementAverageHighLow
Temperature4.2 °C8.9 °C (12:53 pm) (9:19 am)
Dewpoint4 °C7 °C (3:35 pm) (7:00 pm)
Humidity98.3 %100 % (12:51 am)80 % (12:53 pm)
Barometer996.6 hPa1029.1 hPa (12:53 am) (7:00 pm)
Wind Speed3.7 km/h11.1 km/h (4:00 pm)
Weather ElementAverage
Visibility5.3 km
Wind DirectionENE (80.1 °)

Weather ElementTotal
Precipitation0.25 mm
Heating Degree Days22.8 (Base 18.3)
Averaged from 68 records on 31 January, 2013
WEATHER CONDITIONS BREAKOUT
WIND DIRECTION BREAKOUT
WEATHER BY HOUR - 31 JANUARY, 2013
[ °F ]   °C
Local TimeTemperatureDewpointHumidityBarometerVisibilityWind DirectionWind SpeedGust SpeedPrecipitationEventsConditions
12:51 AM5 °C5 °C100 %1028.4 hPa1.6 kmENE (70°)7.4 km/hOvercast
12:53 AM5 °C5 °C100 %1029.1 hPa1.9 kmEast (80°)7.4 km/hOvercast
1:03 AM5 °C5 °C100 %1028.4 hPa4.8 kmEast (80°)7.4 km/hOvercast
1:21 AM5 °C5 °C100 %1028.1 hPa3.2 kmEast (80°)7.4 km/hOvercast
1:32 AM5 °C5 °C100 %1027.8 hPa2.9 kmEast (90°)7.4 km/hOvercast
1:53 AM5 °C5 °C100 %1028.8 hPa1.3 kmCalmMist
2:15 AM5 °C5 °C100 %1027.8 hPa0.3 kmESE (110°)7.4 km/hFogFog
2:30 AM5 °C5 °C100 %1027.8 hPa0.8 kmCalmFogFog
2:38 AM5 °C5 °C100 %1027.8 hPa0.3 kmCalmFogFog
2:45 AM4 °C4 °C100 %1027.8 hPa1.9 kmCalmOvercast
2:53 AM3.3 °C3.3 °C100 %1028.4 hPa16.1 kmCalmMostly Cloudy
3:02 AM3 °C3 °C100 %1027.8 hPa16.1 kmCalmScattered Clouds
3:29 AM3 °C3 °C100 %1027.8 hPa6.4 kmEast (90°)7.4 km/hMostly Cloudy
3:35 AM3 °C3 °C100 %1027.8 hPa2.9 kmEast (90°)7.4 km/hMostly Cloudy
3:48 AM3 °C3 °C100 %1027.4 hPa1.3 kmEast (100°)5.6 km/hMist
3:53 AM2.8 °C2.8 °C100 %1028.4 hPa0.8 kmESE (110°)9.3 km/hFogFog
4:04 AM3 °C3 °C100 %1027.4 hPa0.8 kmEast (90°)7.4 km/hFogFog
4:12 AM3 °C3 °C100 %1027.1 hPa3.2 kmEast (80°)5.6 km/hOvercast
4:21 AM3 °C3 °C100 %1027.1 hPa9.7 kmCalmOvercast
4:26 AM3 °C3 °C100 %1027.1 hPa2.9 kmCalmOvercast
4:53 AM3.3 °C3.3 °C100 %1028.1 hPa0.3 kmCalmFogFog
5:14 AM3 °C3 °C100 %1027.1 hPa0.8 kmCalmFogFog
5:53 AM3.9 °C3.9 °C100 %1027.8 hPa0.8 kmCalmFogFog
6:37 AM3 °C3 °C100 %1027.1 hPa4 kmEast (90°)5.6 km/hOvercast
6:51 AM3 °C3 °C100 %1027.1 hPa1.9 kmENE (70°)5.6 km/hOvercast
6:53 AM3.3 °C3.3 °C100 %1028.1 hPa1.6 kmENE (70°)5.6 km/hOvercast
7:31 AM3 °C3 °C100 %1027.4 hPa1.3 kmCalmMist
7:53 AM3.3 °C3.3 °C100 %1028.1 hPa0.3 kmEast (100°)5.6 km/hFogFog
8:31 AM4 °C4 °C100 %1027.8 hPa0.8 kmCalmFogFog
8:37 AM4 °C4 °C100 %1027.4 hPa0.3 kmCalmFogFog
8:53 AM4.4 °C4.4 °C100 %1028.4 hPa0.3 kmCalmFogFog
9:10 AM5 °C5 °C100 %1027.8 hPa0.3 kmCalmFogFog
9:19 AM-17.8 °C-17.8 °CCalm
9:24 AM5 °C5 °C100 %1027.8 hPa0.3 kmCalmFogFog
9:53 AM5.6 °C5.6 °C100 %1028.4 hPa0.3 kmCalmFogFog
10:00 AM-17.8 °C-17.8 °C6 kmSouth (170°)5.6 km/h
10:01 AM6 °C6 °C100 %1027.4 hPa1.3 kmVariable7.4 km/hMist
10:06 AM6 °C6 °C100 %1027.4 hPa1.6 kmSouth (190°)9.3 km/hOvercast
10:07 AM6 °C6 °C100 %1027.4 hPa3.2 kmSouth (180°)7.4 km/hOvercast
10:11 AM6 °C6 °C100 %1027.4 hPa4.8 kmSSW (200°)7.4 km/hOvercast
10:13 AM6 °C6 °C100 %1027.4 hPa8 kmSouth (180°)9.3 km/hOvercast
10:18 AM6 °C6 °C100 %1027.4 hPa14.5 kmSSW (210°)9.3 km/hOvercast
10:53 AM6.1 °C6.1 °C100 %1028.1 hPa14.5 kmCalmScattered Clouds
10:59 AM7 °C6 °C93 %1027.1 hPa14.5 kmCalmScattered Clouds
11:27 AM7 °C6 °C93 %1027.1 hPa14.5 kmWSW (250°)7.4 km/hPartly Cloudy
11:53 AM7.8 °C6.7 °C93 %1027.8 hPa12.9 kmWest (270°)5.6 km/hClear
12:53 PM8.9 °C5.6 °C80 %1027.1 hPa16.1 kmNW (310°)7.4 km/hClear
1:53 PM8.9 °C6.1 °C83 %1026.1 hPa16.1 kmWNW (300°)9.3 km/hClear
2:53 PM8.3 °C6.1 °C86 %1025.7 hPa16.1 kmVariable5.6 km/hClear
3:35 PM8 °C7 °C93 %1025.1 hPa16.1 kmWNW (290°)5.6 km/hPartly Cloudy
3:53 PM7.8 °C6.1 °C89 %1025.7 hPa16.1 kmNW (320°)7.4 km/hScattered Clouds
4:00 PM7 °C7 °C100 %1025.1 hPa2.9 kmNW (320°)11.1 km/hMostly Cloudy
4:05 PM7 °C7 °C100 %1025.1 hPa0.3 kmNW (320°)7.4 km/hFogFog
4:25 PM7 °C6 °C93 %1025.1 hPa0.8 kmNorth (360°)5.6 km/hFogFog
4:33 PM7 °C6 °C93 %1025.1 hPa0.8 kmNorth (10°)5.6 km/hFogFog
4:43 PM7 °C7 °C100 %1024.7 hPa0.3 kmCalmFogFog
4:53 PM6.1 °C6.1 °C100 %1025.4 hPa1.3 kmCalmMist
5:07 PM6 °C6 °C100 %1024.7 hPa2.4 kmCalmMostly Cloudy
5:18 PM6 °C6 °C100 %1024.4 hPa3.2 kmCalmScattered Clouds
5:25 PM6 °C6 °C100 %1024.4 hPa8 kmCalmPartly Cloudy
5:53 PM5 °C5 °C100 %1025.1 hPa11.3 kmCalmClear
6:53 PM4.4 °C4.4 °C100 %1025.1 hPa16.1 kmCalmClear
7:53 PM3.9 °C3.3 °C96 %1024.7 hPa6.4 kmCalmClear
8:53 PM3.3 °C3.3 °C100 %1024.7 hPa6.4 kmCalm0.25 mmClear
9:53 PM3.3 °C2.8 °C97 %1024.4 hPa11.3 kmEast (100°)7.4 km/hClear
10:53 PM2.8 °C2.8 °C100 %1024.4 hPa6.4 kmCalmClear
11:27 PM2 °C2 °C100 %1023.4 hPa2.9 kmENE (70°)5.6 km/hClear
11:53 PM2.2 °C2.2 °C100 %1024.4 hPa4 kmCalmClear
Hourly data recorded from KACV, located 0 kilometers away from Eureka, California







STORIES FROM OUR PARTNERS